Tracking 34794 objects as of 19-Jul-2026
HD Live streaming from Space Station
objects crossing your sky now

CZ-4 DEB

Track CZ-4 DEB now!
10-day predictions


NORAD ID: 20855
Int'l Code: 1990-081T
Perigee: 851.3 km
Apogee: 887.3 km
Inclination: 98.8 °
Period: 102.2 minutes
Semi major axis: 7240 km
RCS: 7.4909 m2 (large)
Launch date: September 3, 1990
Source: People's Republic of China (PRC)
Launch site: Taiyaun Space Center, China (TSC)

Note: This is SATELLITE DEBRIS
Your satellite tracking list
Your tracking list is empty




NASA's NSSDC Master Catalog

Two Line Element Set (TLE):
1 20855U 90081T   26200.24034378  .00000092  00000-0  77510-4 0  9994
2 20855  98.8320 181.0450 0024843  47.7098 323.9054 14.09182016843820
Source of the keplerian elements: AFSPC